UAE221 OMDB-KDFW

Flight info

Callsign UAE221
Flight time N/A
Altitude 28000
Route DAVMO M318 GABKO M317 ROTAL P574 SYZ P550 RASLA/N0498F300 P550 DASIS UL746 ODERO DCT LAPKA/N0492F320 DCT ETEPA DCT SAT DCT KENIN DCT LENOV L623 ADVAB L619 DENKO L996 VAVUN M602 BINKA DCT MASOR DCT NEDIK DCT VAXIT DCT ARTEX DCT LAMRO DCT ERAKA/M084F340 DCT 59N015W 59N020W 59N030W 59N040W 59N050W DCT AVUTI/N0491F340 N852B TEALS/N0493F360 DCT AGLOL DCT YKQ DCT PEMLU DCT BACMO DCT KP09O DCT OSH DCT KAMBL DCT ULMAN DCT FSM DCT KOMMA DCT RRNET SEEVR4
Aircraft B77W/H-SDE1E2E3FGHIJ2J3J4J5M1RWXY/LB1D1

Departure

Time 2026-04-21 21:24
Airport Dubai International Airport (OMDB)

Arrival

Time N/A
Airport Dallas Fort Worth International Airport (KDFW)
Time Latitude Longitude Altitude Speed Heading
2026-04-21 20:45 25.25403 55.35354 44 ft 0 kts 210°
2026-04-21 21:06 25.25415 55.35362 44 ft 2 kts 210°
2026-04-21 21:07 25.25427 55.35370 44 ft 2 kts 210°
2026-04-21 21:07 25.25440 55.35379 44 ft 2 kts 219°
2026-04-21 21:07 25.25451 55.35390 44 ft 2 kts 235°
2026-04-21 21:07 25.25458 55.35405 44 ft 2 kts 249°
2026-04-21 21:08 25.25462 55.35421 44 ft 2 kts 263°
2026-04-21 21:08 25.25462 55.35438 44 ft 2 kts 277°
2026-04-21 21:08 25.25459 55.35453 44 ft 2 kts 290°
2026-04-21 21:08 25.25454 55.35466 44 ft 0 kts 301°
2026-04-21 21:09 25.25453 55.35468 44 ft 0 kts 302°
2026-04-21 21:16 25.25460 55.35455 44 ft 3 kts 302°
2026-04-21 21:16 25.25489 55.35404 44 ft 13 kts 301°
2026-04-21 21:16 25.25532 55.35322 44 ft 11 kts 301°
2026-04-21 21:16 25.25570 55.35254 44 ft 11 kts 300°
2026-04-21 21:17 25.25624 55.35165 44 ft 16 kts 316°
2026-04-21 21:17 25.25737 55.35197 44 ft 20 kts 28°
2026-04-21 21:17 25.25856 55.35278 44 ft 18 kts 30°
2026-04-21 21:17 25.25955 55.35352 44 ft 15 kts 46°
2026-04-21 21:18 25.25970 55.35370 44 ft 1 kts 50°
2026-04-21 21:18 25.25993 55.35494 44 ft 28 kts 102°
2026-04-21 21:18 25.25902 55.35686 44 ft 28 kts 127°
2026-04-21 21:18 25.25795 55.35879 44 ft 28 kts 121°
2026-04-21 21:19 25.25699 55.36051 44 ft 24 kts 121°
2026-04-21 21:19 25.25614 55.36205 44 ft 21 kts 122°
2026-04-21 21:19 25.25540 55.36334 44 ft 18 kts 122°
2026-04-21 21:19 25.25466 55.36463 44 ft 22 kts 119°
2026-04-21 21:20 25.25377 55.36628 44 ft 27 kts 121°
2026-04-21 21:20 25.25286 55.36792 45 ft 22 kts 122°
2026-04-21 21:20 25.25210 55.36933 45 ft 21 kts 120°
2026-04-21 21:20 25.25132 55.37073 45 ft 21 kts 122°
2026-04-21 21:21 25.25051 55.37218 45 ft 22 kts 120°
2026-04-21 21:21 25.24970 55.37367 45 ft 22 kts 120°
2026-04-21 21:21 25.24885 55.37518 45 ft 23 kts 120°
2026-04-21 21:21 25.24800 55.37674 45 ft 23 kts 121°
2026-04-21 21:22 25.24707 55.37839 45 ft 21 kts 123°
2026-04-21 21:22 25.24674 55.37913 45 ft 9 kts 98°
2026-04-21 21:22 25.24711 55.37983 45 ft 12 kts 30°
2026-04-21 21:22 25.24786 55.38026 45 ft 9 kts 18°
2026-04-21 21:23 25.24816 55.38012 45 ft 3 kts 301°
2026-04-21 21:23 25.24879 55.37887 45 ft 37 kts 298°
2026-04-21 21:23 25.25073 55.37534 45 ft 86 kts 299°
2026-04-21 21:23 25.25490 55.36790 45 ft 144 kts 301°
2026-04-21 21:24 25.26089 55.35710 48 ft 185 kts 301°
2026-04-21 21:24 25.26776 55.34454 371 ft 191 kts 301°
2026-04-21 21:24 25.27468 55.33183 762 ft 202 kts 303°
2026-04-21 21:24 25.28242 55.31806 1168 ft 215 kts 303°
2026-04-21 21:25 25.29181 55.30466 1564 ft 227 kts 321°
2026-04-21 21:25 25.30578 55.29660 2088 ft 230 kts 348°
2026-04-21 21:25 25.32162 55.29527 2782 ft 229 kts
2026-04-21 21:25 25.33725 55.29564 3478 ft 230 kts
2026-04-21 21:26 25.35363 55.29610 4068 ft 235 kts
2026-04-21 21:26 25.36987 55.29650 4742 ft 235 kts
2026-04-21 21:26 25.38652 55.29690 5318 ft 240 kts
2026-04-21 21:26 25.40303 55.29976 5879 ft 244 kts 18°
2026-04-21 21:27 25.41933 55.30686 6174 ft 261 kts 21°
2026-04-21 21:27 25.43693 55.31513 6468 ft 280 kts 21°
2026-04-21 21:27 25.45515 55.32365 6849 ft 295 kts 21°
2026-04-21 21:27 25.47451 55.33267 7461 ft 302 kts 21°
2026-04-21 21:28 25.49429 55.34187 8081 ft 308 kts 21°
2026-04-21 21:28 25.51419 55.35113 8736 ft 312 kts 21°
2026-04-21 21:28 25.55471 55.36998 10009 ft 320 kts 20°
2026-04-21 21:29 25.57549 55.38019 10485 ft 332 kts 26°
2026-04-21 21:29 25.59401 55.39304 10774 ft 348 kts 32°
2026-04-21 21:29 25.61433 55.40896 11106 ft 363 kts 33°
2026-04-21 21:29 25.63510 55.42528 11453 ft 378 kts 33°
2026-04-21 21:30 25.65667 55.44219 11814 ft 392 kts 32°
2026-04-21 21:30 25.67841 55.46172 12182 ft 407 kts 40°
2026-04-21 21:30 25.69941 55.48362 12635 ft 419 kts 41°
2026-04-21 21:30 25.72108 55.50644 13261 ft 425 kts 40°
2026-04-21 21:31 25.74266 55.52914 13921 ft 429 kts 40°
2026-04-21 21:31 25.76463 55.55225 14620 ft 432 kts 40°
2026-04-21 21:31 25.78629 55.57504 15301 ft 434 kts 40°
2026-04-21 21:31 25.80829 55.59817 15886 ft 439 kts 40°
2026-04-21 21:32 25.83055 55.62159 16456 ft 443 kts 40°
2026-04-21 21:32 25.85326 55.64489 17067 ft 445 kts 36°
2026-04-21 21:32 25.87855 55.66506 17582 ft 446 kts 30°
2026-04-21 21:32 25.90484 55.68367 18087 ft 451 kts 29°
2026-04-21 21:33 25.93165 55.70252 18593 ft 455 kts 29°
2026-04-21 21:33 25.95875 55.72160 19104 ft 459 kts 29°
2026-04-21 21:33 25.98567 55.74059 19552 ft 464 kts 29°
2026-04-21 21:33 26.01288 55.75976 20005 ft 467 kts 28°
2026-04-21 21:34 26.04201 55.77644 20459 ft 467 kts 19°
2026-04-21 21:34 26.07297 55.78769 20832 ft 468 kts 10°
2026-04-21 21:34 26.10496 55.79323 21224 ft 467 kts
2026-04-21 21:34 26.13755 55.79304 21624 ft 466 kts 351°
2026-04-21 21:35 26.16965 55.78717 21978 ft 466 kts 342°
2026-04-21 21:35 26.20048 55.77574 22351 ft 465 kts 333°
2026-04-21 21:35 26.22924 55.75908 22722 ft 464 kts 324°
2026-04-21 21:35 26.25543 55.73747 23071 ft 464 kts 315°
2026-04-21 21:36 26.27791 55.71189 23414 ft 464 kts 307°
2026-04-21 21:36 26.29663 55.68196 23751 ft 464 kts 298°
2026-04-21 21:36 26.31251 55.65115 24117 ft 467 kts 298°
2026-04-21 21:36 26.32980 55.62008 24550 ft 469 kts 300°
2026-04-21 21:37 26.34792 55.58979 24941 ft 470 kts 302°
2026-04-21 21:37 26.36661 55.56012 25214 ft 474 kts 303°
2026-04-21 21:37 26.38611 55.53030 25451 ft 478 kts 303°
2026-04-21 21:37 26.40648 55.50015 25717 ft 482 kts 304°
2026-04-21 21:38 26.42678 55.47077 26018 ft 483 kts 305°
2026-04-21 21:38 26.44764 55.44094 26297 ft 485 kts 305°
2026-04-21 21:38 26.46870 55.41114 26546 ft 488 kts 305°
2026-04-21 21:38 26.48971 55.38157 26795 ft 490 kts 306°
2026-04-21 21:39 26.51126 55.35136 27024 ft 492 kts 306°
2026-04-21 21:39 26.53274 55.32133 27293 ft 493 kts 305°
2026-04-21 21:39 26.55421 55.29134 27677 ft 491 kts 305°
2026-04-21 21:39 26.57551 55.26160 27775 ft 496 kts 306°
2026-04-21 21:40 26.59745 55.23100 27783 ft 502 kts 306°
2026-04-21 21:40 26.61917 55.20072 27783 ft 507 kts 306°
2026-04-21 21:40 26.64150 55.16959 27788 ft 511 kts 306°
2026-04-21 21:40 26.66377 55.13854 27787 ft 513 kts 306°
2026-04-21 21:41 26.68618 55.10726 27794 ft 515 kts 306°
2026-04-21 21:41 26.70837 55.07633 27793 ft 507 kts 306°
2026-04-21 21:41 26.72993 55.04628 27801 ft 494 kts 305°
2026-04-21 21:41 26.75149 55.01620 27802 ft 486 kts 306°
2026-04-21 21:42 26.77256 54.98677 27813 ft 485 kts 306°
2026-04-21 21:42 26.79356 54.95739 27818 ft 486 kts 305°
2026-04-21 21:42 26.81485 54.92746 27827 ft 486 kts 305°
2026-04-21 21:42 26.83590 54.89784 27835 ft 485 kts 305°
2026-04-21 21:43 26.85684 54.86834 27838 ft 484 kts 306°
2026-04-21 21:43 26.87768 54.83898 27844 ft 485 kts 306°
2026-04-21 21:43 26.89876 54.80926 27847 ft 485 kts 305°
2026-04-21 21:43 26.91994 54.77938 27856 ft 483 kts 305°
2026-04-21 21:44 26.94088 54.74981 27867 ft 485 kts 305°
2026-04-21 21:44 26.96186 54.72017 27879 ft 484 kts 305°
2026-04-21 21:44 26.98279 54.69060 27887 ft 483 kts 305°
2026-04-21 21:44 27.00372 54.66100 27899 ft 483 kts 305°
2026-04-21 21:45 27.02455 54.63152 27908 ft 482 kts 305°
2026-04-21 21:45 27.04544 54.60193 27911 ft 482 kts 305°
2026-04-21 21:45 27.06634 54.57231 27923 ft 484 kts 305°
2026-04-21 21:45 27.08732 54.54256 27925 ft 483 kts 305°
2026-04-21 21:46 27.10817 54.51299 27927 ft 481 kts 305°
2026-04-21 21:46 27.12896 54.48345 27936 ft 483 kts 305°
2026-04-21 21:46 27.14982 54.45381 27938 ft 482 kts 305°
2026-04-21 21:46 27.17054 54.42436 27951 ft 481 kts 305°
2026-04-21 21:47 27.19129 54.39483 27964 ft 480 kts 305°
2026-04-21 21:47 27.21222 54.36504 27976 ft 481 kts 305°
2026-04-21 21:47 27.23309 54.33528 27998 ft 482 kts 305°
2026-04-21 21:48 27.27468 54.27598 28035 ft 480 kts 304°
2026-04-21 21:48 27.31601 54.21696 28035 ft 482 kts 304°
2026-04-21 21:49 27.35735 54.15785 28029 ft 479 kts 304°
2026-04-21 21:49 27.39876 54.09854 28017 ft 481 kts 304°
2026-04-21 21:50 27.43990 54.03955 28007 ft 479 kts 304°
2026-04-21 21:50 27.46047 54.01003 27999 ft 479 kts 304°
2026-04-21 21:50 27.48113 53.98036 27992 ft 478 kts 304°
2026-04-21 21:50 27.50160 53.95094 27971 ft 478 kts 304°
2026-04-21 21:51 27.52248 53.92135 27966 ft 479 kts 307°
2026-04-21 21:51 27.54605 53.89441 27962 ft 482 kts 315°
2026-04-21 21:51 27.57327 53.87107 27968 ft 488 kts 322°
2026-04-21 21:51 27.60298 53.85128 27972 ft 492 kts 325°
2026-04-21 21:52 27.63332 53.83208 27978 ft 491 kts 325°
2026-04-21 21:52 27.66305 53.81332 27978 ft 490 kts 326°
2026-04-21 21:52 27.69312 53.79433 27978 ft 491 kts 325°
2026-04-21 21:52 27.72275 53.77557 27971 ft 490 kts 325°
2026-04-21 21:53 27.75251 53.75670 27974 ft 490 kts 325°
2026-04-21 21:53 27.78256 53.73762 27988 ft 491 kts 326°
2026-04-21 21:53 27.81239 53.71873 27987 ft 491 kts 326°
2026-04-21 21:53 27.84241 53.69970 27992 ft 491 kts 326°
2026-04-21 21:54 27.87218 53.68080 28000 ft 490 kts 326°
2026-04-21 21:54 27.93158 53.64302 28009 ft 489 kts 326°
2026-04-21 21:55 27.99112 53.60504 28016 ft 489 kts 325°
2026-04-21 21:55 28.05062 53.56703 28027 ft 488 kts 325°
2026-04-21 21:56 28.11014 53.52894 28036 ft 488 kts 325°
2026-04-21 21:56 28.16952 53.49089 28040 ft 488 kts 325°
2026-04-21 21:57 28.22883 53.45290 28025 ft 487 kts 325°
2026-04-21 21:57 28.28795 53.41495 28026 ft 487 kts 325°
2026-04-21 21:58 28.34705 53.37695 28037 ft 486 kts 325°
2026-04-21 21:58 28.40630 53.33880 28059 ft 485 kts 324°
2026-04-21 21:59 28.46527 53.30078 28095 ft 485 kts 324°
2026-04-21 21:59 28.52426 53.26269 28091 ft 485 kts 324°
2026-04-21 22:00 28.58269 53.22449 28109 ft 483 kts 324°
2026-04-21 22:00 28.64116 53.18601 28141 ft 484 kts 324°
2026-04-21 22:01 28.69919 53.14779 28159 ft 482 kts 323°
2026-04-21 22:01 28.75719 53.10955 28175 ft 483 kts 323°
2026-04-21 22:02 28.81552 53.07098 28176 ft 482 kts 323°
2026-04-21 22:02 28.87346 53.03271 28167 ft 480 kts 323°
2026-04-21 22:03 28.93109 52.99460 28161 ft 481 kts 323°
2026-04-21 22:03 28.98874 52.95638 28159 ft 479 kts 323°
2026-04-21 22:04 29.04642 52.91814 28171 ft 479 kts 323°
2026-04-21 22:04 29.10436 52.87968 28160 ft 480 kts 323°
2026-04-21 22:05 29.16216 52.84128 28160 ft 478 kts 323°
2026-04-21 22:05 29.21960 52.80304 28152 ft 481 kts 323°
2026-04-21 22:06 29.27665 52.76508 28144 ft 466 kts 323°
2026-04-21 22:06 29.33290 52.72753 28140 ft 469 kts 323°
2026-04-21 22:07 29.38688 52.69145 28139 ft 467 kts 322°
2026-04-21 22:07 29.44311 52.65383 28136 ft 468 kts 323°
2026-04-21 22:08 29.49931 52.61618 28138 ft 467 kts 322°
2026-04-21 22:08 29.55521 52.57833 28129 ft 466 kts 320°
2026-04-21 22:09 29.60827 52.53626 28140 ft 461 kts 318°
2026-04-21 22:09 29.66111 52.49407 28141 ft 462 kts 318°
2026-04-21 22:10 29.71454 52.45163 28141 ft 462 kts 318°
2026-04-21 22:10 29.76760 52.40955 28142 ft 461 kts 318°
2026-04-21 22:11 29.82050 52.36760 28145 ft 463 kts 318°
2026-04-21 22:11 29.87380 52.32534 28163 ft 459 kts 317°
2026-04-21 22:12 29.92644 52.28353 28165 ft 462 kts 317°
2026-04-21 22:12 29.97946 52.24140 28167 ft 461 kts 317°
2026-04-21 22:13 30.03275 52.19900 28166 ft 461 kts 317°
2026-04-21 22:13 30.08596 52.15660 28161 ft 461 kts 317°
2026-04-21 22:14 30.13875 52.11449 28156 ft 460 kts 317°
2026-04-21 22:14 30.19148 52.07236 28169 ft 462 kts 317°
2026-04-21 22:15 30.24474 52.02975 28182 ft 465 kts 317°
2026-04-21 22:15 30.29797 51.98712 28192 ft 463 kts 317°
2026-04-21 22:16 30.35134 51.94432 28195 ft 464 kts 317°
2026-04-21 22:16 30.40417 51.90190 28194 ft 461 kts 317°
2026-04-21 22:17 30.45713 51.85930 28193 ft 464 kts 317°
2026-04-21 22:17 30.51060 51.81624 28179 ft 465 kts 317°
2026-04-21 22:18 30.56387 51.77329 28178 ft 465 kts 317°
2026-04-21 22:18 30.61692 51.73045 28177 ft 464 kts 317°
2026-04-21 22:19 30.66984 51.68766 28166 ft 467 kts 317°
2026-04-21 22:19 30.72363 51.64411 28160 ft 466 kts 318°
2026-04-21 22:20 30.77724 51.60065 28136 ft 466 kts 318°
2026-04-21 22:20 30.83028 51.55758 28158 ft 467 kts 318°
2026-04-21 22:21 30.87907 51.51793 28164 ft 466 kts 317°
2026-04-21 22:21 30.91329 51.49007 28166 ft 467 kts 318°
2026-04-21 22:22 30.96669 51.44656 28191 ft 467 kts 317°
2026-04-21 22:22 31.00356 51.41649 28194 ft 466 kts 317°
2026-04-21 22:23 31.05676 51.37304 28190 ft 464 kts 317°
2026-04-21 22:23 31.10959 51.32983 28202 ft 466 kts 317°